When you browse on this site, cookies collect data to enhance your experience and personalize the content and advertising you see.
Visit our Privacy Policy to learn more. By continuing to use the site, you agree to this use of cookies and data.
  • In Lithuania
  • List of Countries
  • For 7 days
  • Water Temperature
  • Weather Map
  • Weather Widgets
  • user-avatar
    Login

    Hourly Weather Shaki

    Today, 1 June, Monday

    Time Temperature Precipitation Wind Pressure Humidity
    00:00 +20°C° 0 mm 3 mps 734 mmHg 66%
    01:00 +19°C° 0 mm 2 mps 734 mmHg 65%
    02:00 +19°C° 0 mm 2 mps 734 mmHg 65%
    03:00 +19°C° 0 mm 1 mps 734 mmHg 64%
    04:00 +20°C° 0 mm 1 mps 734 mmHg 62%
    05:00 +21°C° 0 mm 1 mps 734 mmHg 60%
    06:00 +22°C° 0 mm 1 mps 734 mmHg 58%
    07:00 +24°C° 0 mm 1 mps 734 mmHg 54%
    08:00 +25°C° 0 mm 2 mps 734 mmHg 50%
    09:00 +26°C° 0 mm 2 mps 733 mmHg 46%
    10:00 +28°C° 0 mm 2 mps 733 mmHg 44%
    11:00 +29°C° 0 mm 2 mps 733 mmHg 42%
    12:00 +30°C° 0 mm 2 mps 732 mmHg 39%
    13:00 +31°C° 0 mm 2 mps 732 mmHg 38%
    14:00 +31°C° 0 mm 2 mps 731 mmHg 37%
    15:00 +32°C° 0 mm 2 mps 731 mmHg 35%
    16:00 +31°C° 0 mm 2 mps 731 mmHg 37%
    17:00 +31°C° 0 mm 2 mps 731 mmHg 39%
    18:00 +30°C° 0 mm 1 mps 730 mmHg 41%
    19:00 +28°C° 0 mm 1 mps 730 mmHg 44%
    20:00 +26°C° 0 mm 1 mps 731 mmHg 46%
    21:00 +24°C° 0 mm 1 mps 731 mmHg 48%
    22:00 +24°C° 0 mm 1 mps 731 mmHg 49%
    23:00 +23°C° 0 mm 1 mps 730 mmHg 50%

    Tomorrow, 2 June, Tuesday

    Time Temperature Precipitation Wind Pressure Humidity
    00:00 +22°C° 0 mm 1 mps 730 mmHg 51%
    01:00 +22°C° 0 mm 1 mps 730 mmHg 51%
    02:00 +22°C° 0 mm 1 mps 730 mmHg 52%
    03:00 +21°C° 0 mm 1 mps 730 mmHg 52%
    04:00 +22°C° 0 mm 1 mps 730 mmHg 52%
    05:00 +23°C° 0 mm 1 mps 730 mmHg 51%
    06:00 +24°C° 0 mm 1 mps 730 mmHg 51%
    07:00 +26°C° 0 mm 1 mps 730 mmHg 47%
    08:00 +28°C° 0 mm 1 mps 730 mmHg 43%
    09:00 +29°C° 0 mm 2 mps 729 mmHg 39%
    10:00 +31°C° 0 mm 2 mps 729 mmHg 36%
    11:00 +34°C° 0 mm 2 mps 729 mmHg 32%
    12:00 +35°C° 0 mm 2 mps 729 mmHg 29%
    13:00 +36°C° 0 mm 2 mps 729 mmHg 28%
    14:00 +36°C° 0 mm 3 mps 729 mmHg 26%
    15:00 +37°C° 0 mm 3 mps 728 mmHg 24%
    16:00 +34°C° 0.6 mm 4 mps 728 mmHg 35%
    17:00 +30°C° 0.6 mm 4 mps 729 mmHg 45%
    18:00 +26°C° 0.6 mm 4 mps 729 mmHg 55%
    19:00 +26°C° 0.9 mm 4 mps 729 mmHg 58%
    20:00 +25°C° 0.9 mm 3 mps 729 mmHg 60%
    21:00 +24°C° 0.9 mm 3 mps 729 mmHg 63%
    22:00 +22°C° 0.1 mm 3 mps 729 mmHg 63%
    23:00 +22°C° 0.1 mm 3 mps 729 mmHg 64%

    Day after tomorrow, 3 June, Wednesday

    Time Temperature Precipitation Wind Pressure Humidity
    00:00 +23°C° 0.1 mm 2 mps 728 mmHg 65%
    01:00 +21°C° 0.2 mm 2 mps 728 mmHg 67%
    02:00 +20°C° 0.2 mm 2 mps 728 mmHg 70%
    03:00 +20°C° 0.2 mm 2 mps 728 mmHg 73%
    04:00 +20°C° 0.1 mm 2 mps 728 mmHg 71%
    05:00 +21°C° 0.1 mm 2 mps 728 mmHg 69%
    06:00 +23°C° 0.1 mm 2 mps 728 mmHg 67%
    07:00 +25°C° 0 mm 3 mps 728 mmHg 60%
    08:00 +27°C° 0 mm 3 mps 727 mmHg 52%
    09:00 +29°C° 0 mm 4 mps 727 mmHg 45%
    10:00 +32°C° 0 mm 4 mps 727 mmHg 40%
    11:00 +34°C° 0 mm 4 mps 727 mmHg 34%
    12:00 +35°C° 0 mm 4 mps 727 mmHg 29%
    13:00 +36°C° 0 mm 4 mps 727 mmHg 26%
    14:00 +36°C° 0 mm 4 mps 727 mmHg 22%
    15:00 +37°C° 0 mm 3 mps 727 mmHg 19%
    16:00 +35°C° 0 mm 3 mps 727 mmHg 24%
    17:00 +33°C° 0 mm 3 mps 727 mmHg 30%
    18:00 +30°C° 0 mm 3 mps 727 mmHg 36%
    19:00 +29°C° 0.1 mm 3 mps 728 mmHg 37%
    20:00 +27°C° 0.1 mm 2 mps 728 mmHg 38%
    21:00 +26°C° 0.1 mm 2 mps 728 mmHg 39%
    22:00 +25°C° 0.1 mm 2 mps 729 mmHg 46%
    23:00 +22°C° 0.1 mm 3 mps 729 mmHg 53%

    4 June, Thursday

    Time Temperature Precipitation Wind Pressure Humidity
    00:00 +21°C° 0.1 mm 3 mps 729 mmHg 60%
    01:00 +21°C° 0 mm 3 mps 730 mmHg 61%
    02:00 +21°C° 0 mm 3 mps 730 mmHg 62%
    03:00 +20°C° 0 mm 4 mps 731 mmHg 64%
    04:00 +21°C° 0 mm 4 mps 731 mmHg 62%
    05:00 +21°C° 0 mm 4 mps 731 mmHg 61%
    06:00 +22°C° 0 mm 4 mps 732 mmHg 60%
    07:00 +25°C° 0 mm 4 mps 732 mmHg 53%
    08:00 +27°C° 0 mm 4 mps 732 mmHg 46%
    09:00 +29°C° 0 mm 4 mps 732 mmHg 39%
    10:00 +30°C° 0 mm 3 mps 732 mmHg 34%
    11:00 +33°C° 0 mm 3 mps 733 mmHg 30%
    12:00 +34°C° 0 mm 2 mps 733 mmHg 26%
    13:00 +35°C° 0 mm 2 mps 733 mmHg 25%
    14:00 +35°C° 0 mm 3 mps 732 mmHg 24%
    15:00 +35°C° 0 mm 3 mps 732 mmHg 23%
    16:00 +34°C° 0 mm 3 mps 732 mmHg 26%
    17:00 +34°C° 0 mm 3 mps 732 mmHg 30%
    18:00 +33°C° 0 mm 4 mps 732 mmHg 34%
    19:00 +29°C° 0 mm 4 mps 733 mmHg 42%
    20:00 +27°C° 0 mm 5 mps 733 mmHg 49%
    21:00 +23°C° 0 mm 5 mps 733 mmHg 57%
    22:00 +22°C° 0 mm 4 mps 733 mmHg 60%
    23:00 +21°C° 0 mm 3 mps 733 mmHg 62%

    5 June, Friday

    Time Temperature Precipitation Wind Pressure Humidity
    00:00 +20°C° 0 mm 2 mps 734 mmHg 65%
    01:00 +20°C° 0 mm 2 mps 734 mmHg 66%
    02:00 +20°C° 0 mm 2 mps 734 mmHg 68%
    03:00 +19°C° 0 mm 2 mps 734 mmHg 69%
    04:00 +20°C° 0 mm 2 mps 734 mmHg 68%
    05:00 +21°C° 0 mm 2 mps 735 mmHg 67%
    06:00 +22°C° 0 mm 3 mps 735 mmHg 66%
    07:00 +24°C° 0 mm 3 mps 735 mmHg 62%
    08:00 +26°C° 0 mm 3 mps 735 mmHg 57%
    09:00 +27°C° 0 mm 3 mps 735 mmHg 52%
    10:00 +28°C° 0 mm 3 mps 735 mmHg 48%
    11:00 +30°C° 0 mm 3 mps 736 mmHg 44%
    12:00 +31°C° 0 mm 2 mps 736 mmHg 40%
    13:00 +32°C° 0 mm 2 mps 736 mmHg 37%
    14:00 +32°C° 0 mm 2 mps 736 mmHg 34%
    15:00 +34°C° 0 mm 2 mps 735 mmHg 31%
    16:00 +32°C° 0.1 mm 2 mps 736 mmHg 34%
    17:00 +31°C° 0.1 mm 1 mps 736 mmHg 37%
    18:00 +31°C° 0.1 mm 1 mps 736 mmHg 40%
    19:00 +28°C° 0.6 mm 2 mps 737 mmHg 51%
    20:00 +25°C° 0.6 mm 2 mps 737 mmHg 61%
    21:00 +22°C° 0.6 mm 3 mps 738 mmHg 72%
    22:00 +21°C° 0.4 mm 2 mps 738 mmHg 73%
    23:00 +21°C° 0.4 mm 2 mps 738 mmHg 75%

    6 June, Saturday

    Time Temperature Precipitation Wind Pressure Humidity
    00:00 +22°C° 0.4 mm 1 mps 738 mmHg 77%
    01:00 +22°C° 0.1 mm 1 mps 738 mmHg 76%
    02:00 +21°C° 0.1 mm 1 mps 738 mmHg 76%
    03:00 +21°C° 0.1 mm 1 mps 738 mmHg 76%
    04:00 +21°C° 0.1 mm 1 mps 739 mmHg 75%
    05:00 +20°C° 0.1 mm 2 mps 739 mmHg 74%
    06:00 +21°C° 0.1 mm 2 mps 739 mmHg 74%
    07:00 +23°C° 0 mm 2 mps 739 mmHg 70%
    08:00 +24°C° 0 mm 3 mps 739 mmHg 66%
    09:00 +24°C° 0 mm 3 mps 739 mmHg 62%
    10:00 +25°C° 0 mm 3 mps 739 mmHg 59%
    11:00 +26°C° 0 mm 3 mps 739 mmHg 55%
    12:00 +27°C° 0 mm 2 mps 739 mmHg 51%
    13:00 +28°C° 0 mm 2 mps 738 mmHg 50%
    14:00 +28°C° 0 mm 2 mps 738 mmHg 49%
    15:00 +29°C° 0 mm 2 mps 738 mmHg 47%
    16:00 +28°C° 0 mm 2 mps 738 mmHg 49%
    17:00 +28°C° 0 mm 3 mps 738 mmHg 51%
    18:00 +28°C° 0 mm 3 mps 738 mmHg 53%
    19:00 +26°C° 0.1 mm 3 mps 738 mmHg 56%
    20:00 +25°C° 0.1 mm 3 mps 738 mmHg 60%
    21:00 +24°C° 0.1 mm 3 mps 738 mmHg 64%
    22:00 +22°C° 0.1 mm 3 mps 738 mmHg 67%
    23:00 +21°C° 0.1 mm 3 mps 738 mmHg 69%
    Show more